Regional Weather Roundup
Issued by NWS Newport/Morehead, NC

Current Version | Previous Version | Text Only | Print | Product List | Glossary On
Versions: 1 2 3 4 5 6 7 8 9 10 11 12 13 14 15 16 17 18 19 20 21 22 23 24 25 26 27 28 29 30 31 32 33 34 35 36 37 38 39 40 41 42 43 44 45 46 47 48 49 50
000
ASUS42 KMHX 290113
RWRMHX
WEATHER ROUNDUP FOR EASTERN NORTH CAROLINA
NATIONAL WEATHER SERVICE NEWPORT/MOREHEAD CITY NC
900 PM EDT THU MAY 28 2015

NOTE: "FAIR" INDICATES FEW OR NO CLOUDS BELOW 12,000 FEET
WITH NO SIGNIFICANT WEATHER AND/OR OBSTRUCTIONS TO VISIBILITY

NCZ015>017-031-032-045>047-102-103-290200-
NORTH COAST

CITY           SKY/WX    TMP DP  RH WIND       PRES   REMARKS
EDENTON        CLEAR     75  64  69 S8        30.20R
ELIZABETH CITY CLEAR     74  63  68 S7        30.21R
KITTY HAWK     PTCLDY    73  62  68 SE3       30.21R
MANTEO         PTCLDY    73  62  67 S7        30.22R

$$

NCZ045>047-081-094-103-104-290200-
CENTRAL COAST

CITY           SKY/WX    TMP DP  RH WIND       PRES   REMARKS
FRISCO         CLEAR     73  60  63 SE7       30.22R
SWANQUARTER      N/A     73 N/A N/A S3        30.18S

$$

NCZ095-097-098-100-101-290200-
SOUTHERN COAST

CITY           SKY/WX    TMP DP  RH WIND       PRES   REMARKS
BEAUFORT       PTCLDY    72  62  71 SE3       30.21R
CEDAR ISLAND     N/A     72 N/A N/A SE3       30.24S
JACKSONVILLE   CLEAR     72  63  73 S6        30.20R
PINEY ISLAND   PTCLDY   N/A N/A N/A SE6       30.21R
WILMINGTON     CLEAR     73  62  68 CALM      30.20R


$$

NCZ011>013-027>030-043-044-078>080-089-090>093-098-290200-
COASTAL PLAIN

CITY           SKY/WX    TMP DP  RH WIND       PRES   REMARKS
AHOSKIE        CLEAR     74  68  80 SE3       30.20R
CLINTON        CLEAR     76  66  71 S3        30.20R
ELIZABETHTOWN  CLEAR     77  65  66 CALM      30.19S
GOLDSBORO      CLEAR     77  66  67 CALM      30.17R
GREENVILLE     CLEAR     77  68  73 S5        30.21R
HAVELOCK       PTCLDY    70  60  70 S5        30.22R
KENANSVILLE    CLEAR     73  64  71 CALM      30.21R
KINSTON        CLEAR     77  64  65 S6        30.21R
NEW BERN       CLEAR     73  61  65 S6        30.21R
RICHLANDS      CLEAR     72  61  68 S3        30.21R
ROCKY MOUNT    CLOUDY    78  69  73 CALM      30.19R
WASHINGTON     CLEAR     74  64  69 SE3       30.20S
WHITEVILLE     CLEAR     74  63  69 CALM      30.20R

$$

AMZ130-135-150-152-154-156-158-170-250-252-270-ANZ085-086-088-633-658-670-290200-
MARINE OBSERVATIONS

STATION/POSITION TIME  TEMP    WIND        PRES    WAVE   SWELL
                       AIR SEA DIR/SP/G            HT/PER HT/PER
                 (UTC) (F)     (DEG/KT/KT) (MB)    (FT/S) (FT/S)
CHESAPEAKE LIGHT 0100   69     170/ 21/ 22 1023.3
64 E VA BEACH    0050   67 65  140/  6/  8 1023.0    3/ 8   3/ 8
DUCK             0000   67 57  150/ 14/ 15 1021.6
2 E DUCK         0011      62                N/A     2/ 8
OREGON INLET     0000   73 79  130/  6/  9 1022.9
13E OREGON INLT  0100      74                N/A     3/ 7
HATTERAS CG      0000   75 77  130/  6/ 10 1022.4
DIAMOND BUOY     0050   75 78  120/  8/ 10 1023.1    3/ 8   3/ 8
CAPE LOOKOUT     0100   74     150/  5/  6 1022.8
BEAUFORT LAB     0000   74 76  160/  6/  9 1021.8
27 SE WRIGHTSVLE 0000      76  150/ 10/ 10   N/A
5 SE WRIGHTSVLE  0008   76 78  160/  8/ 12 1022.4
225 S CAPE HAT   0050   74 74   60/ 14/ 16 1021.9    7/10   7/10
41 SE CHARLESTON 0050   76 79  100/  8/ 10 1021.9    3/ 8   3/ 8

$$


USA.gov is the U.S. government's official web portal to all federal, state and local government web resources and services.